Flag for U.S.A. Weather past 2 weeks in Aurora, Colorado, U.S.A.

Now
15 °F

Passing clouds.


Feels Like: 15 °F
Forecast: 9 / 22 °F
Wind: No wind

Location: Buckley Air Force Base

Current Time: Feb 28, 2015 at 8:59:41 PM

Latest Report: Feb 28, 2015 at 7:58 PM


Visibility: 10 mi

Pressure: 30.20 "Hg

Humidity: 80%

Dew point: 10 °F

Location of AuroraLocation

Historic Weather in Aurora — Graph

°F

Aurora temperature yesterday

Maximum temperature yesterday: 18 °F (at 2:58 PM)
Minimum temperature yesterday: 0 °F (at 4:58 AM)
Average temperature yesterday: 9 °F

Past Weeks' High & Low Weather Summary

 TemperatureHumidityPressure
High64 °F (Feb 14, 12:58 PM)100% (Feb 15, 6:58 PM)30.58 "Hg (Feb 15, 6:58 PM)
Low0 °F (Feb 27, 4:58 AM)10% (Feb 14, 12:58 PM)29.67 "Hg (Feb 20, 11:58 AM)
Average25 °F71%30.13 "Hg
* Reported Feb 13 6:58 PM — Feb 28 6:58 PM, Aurora, Weather by CustomWeather, © 2015

Note: Actual official high and low records may vary slightly from our data, if they occured in-between our weather recording intervals... More about our weather records

Advertising

Aurora weather history for previous 24 hours

 ConditionsComfort  
Time TempWeatherWind HumidityBarometerVisibility
6:58 PM
Sat, Feb 28
15 °FPassing clouds.5 mph79%30.19 "Hg10 mi
5:58 PM15 °FPassing clouds.2 mph78%30.18 "Hg10 mi
4:58 PM17 °FPartly sunny.2 mph73%30.18 "Hg10 mi
3:58 PM21 °FPartly sunny.6 mph65%30.13 "Hg10 mi
2:58 PM20 °FPartly sunny.6 mph67%30.12 "Hg10 mi
1:58 PM20 °FPartly sunny.7 mph65%30.11 "Hg10 mi
12:58 PM18 °FPartly sunny.6 mph66%30.13 "Hg7 mi
11:58 AM17 °FPartly sunny.6 mph68%30.16 "Hg7 mi
10:58 AM16 °FPartly sunny.6 mph68%30.16 "Hg7 mi
9:58 AM12 °FIce fog.No wind81%30.17 "Hg5 mi
8:58 AM9 °FIce fog.5 mph84%30.16 "Hg5 mi
7:58 AM4 °FIce fog.2 mph88%30.18 "Hg5 mi
6:58 AM2 °FScattered clouds.5 mph88%30.14 "Hg10 mi
5:58 AM4 °FPassing clouds.5 mph86%30.11 "Hg10 mi
4:58 AM2 °FPassing clouds.6 mph83%30.11 "Hg10 mi
3:58 AM4 °FClear.6 mph82%30.06 "Hg10 mi
2:58 AM5 °FClear.5 mph79%30.04 "Hg10 mi
1:58 AM5 °FClear.9 mph77%30.05 "Hg10 mi
12:58 AM6 °FPassing clouds.5 mph79%30.06 "Hg10 mi
11:58 PM
Fri, Feb 27
7 °FPassing clouds.6 mph82%30.07 "Hg10 mi
10:58 PM7 °FPassing clouds.5 mph84%30.09 "Hg10 mi
9:58 PM9 °FPassing clouds.3 mph83%30.11 "Hg10 mi
8:58 PM10 °FPassing clouds.3 mph80%30.13 "Hg10 mi
Weather by CustomWeather, © 2015

See weather overviewHow to use our weather pages